TimeEST,TemperatureF,Dew PointF,Humidity,Sea Level PressureIn,VisibilityMPH,Wind Direction,Wind SpeedMPH,Gust SpeedMPH,PrecipitationIn,Events,Conditions,WindDirDegrees,DateUTC
12:21 AM,64.4,62.6,94,30.09,0.2,Calm,Calm,-,N/A,Fog,Fog,0,2012-11-04 04:21:00
12:33 AM,64.4,62.6,94,30.10,0.2,Calm,Calm,-,N/A,Fog,Fog,0,2012-11-04 04:33:00
12:53 AM,64.0,62.1,93,30.10,0.5,Calm,Calm,-,N/A,Fog,Fog,0,2012-11-04 04:53:00
1:53 AM,63.0,61.0,93,30.09,0.2,Calm,Calm,-,N/A,Fog,Fog,0,2012-11-04 05:53:00
1:53 AM,62.1,61.0,96,30.09,0.2,Calm,Calm,-,N/A,Fog,Fog,0,2012-11-04 06:53:00
2:53 AM,61.0,61.0,100,30.08,0.2,Calm,Calm,-,N/A,Fog,Fog,0,2012-11-04 07:53:00
3:53 AM,61.0,60.1,97,30.08,0.2,Calm,Calm,-,N/A,Fog,Fog,0,2012-11-04 08:53:00
4:53 AM,62.1,61.0,96,30.08,0.2,Calm,Calm,-,N/A,Fog,Fog,0,2012-11-04 09:53:00
5:53 AM,63.0,62.1,97,30.09,0.2,NE,3.5,-,N/A,Fog,Fog,50,2012-11-04 10:53:00
6:53 AM,63.0,62.1,97,30.11,0.2,NE,3.5,-,N/A,Fog,Fog,50,2012-11-04 11:53:00
7:53 AM,64.0,63.0,96,30.12,0.2,ENE,3.5,-,N/A,Fog,Fog,60,2012-11-04 12:53:00
8:53 AM,64.9,64.9,100,30.12,1.0,NE,3.5,-,N/A,,Overcast,50,2012-11-04 13:53:00
9:07 AM,66.2,66.2,100,30.12,3.0,ENE,5.8,-,N/A,,Overcast,70,2012-11-04 14:07:00
9:53 AM,68.0,66.0,93,30.12,8.0,ENE,3.5,-,N/A,,Partly Cloudy,70,2012-11-04 14:53:00
10:53 AM,77.0,63.0,62,30.11,10.0,NE,3.5,-,N/A,,Clear,40,2012-11-04 15:53:00
11:53 AM,77.0,63.0,62,30.09,10.0,WSW,5.8,-,N/A,,Clear,250,2012-11-04 16:53:00
12:53 PM,78.1,62.1,58,30.06,10.0,West,6.9,-,N/A,,Clear,260,2012-11-04 17:53:00
1:53 PM,75.9,64.0,67,30.04,10.0,West,6.9,-,N/A,,Clear,280,2012-11-04 18:53:00
2:53 PM,78.1,61.0,56,30.01,10.0,West,6.9,-,N/A,,Clear,260,2012-11-04 19:53:00
3:53 PM,77.0,62.1,60,30.01,10.0,West,9.2,-,N/A,,Clear,270,2012-11-04 20:53:00
4:53 PM,73.9,63.0,68,30.01,10.0,West,6.9,-,N/A,,Clear,280,2012-11-04 21:53:00
5:53 PM,70.0,63.0,78,30.01,10.0,WNW,5.8,-,N/A,,Clear,300,2012-11-04 22:53:00
6:53 PM,68.0,63.0,84,30.02,10.0,WNW,8.1,-,N/A,,Clear,300,2012-11-04 23:53:00
7:53 PM,66.9,63.0,87,30.03,10.0,NW,6.9,-,N/A,,Clear,310,2012-11-05 00:53:00
8:53 PM,66.9,64.0,90,30.04,10.0,WNW,5.8,-,N/A,,Clear,300,2012-11-05 01:53:00
9:53 PM,70.0,66.0,87,30.04,10.0,WNW,8.1,-,N/A,,Clear,290,2012-11-05 02:53:00
10:53 PM,70.0,66.0,87,30.03,10.0,West,6.9,-,N/A,,Clear,280,2012-11-05 03:53:00